Date,TemperatureHighF,TemperatureAvgF,TemperatureLowF,DewpointHighF,DewpointAvgF,DewpointLowF,HumidityHigh,HumidityAvg,HumidityLow,PressureMaxIn,PressureMinIn,WindSpeedMaxMPH,WindSpeedAvgMPH,GustSpeedMaxMPH,PrecipitationSumIn
2013-1-1,79.0,72.8,62.0,63.0,60.7,58.0,87,66,56,30.18,30.03,13,3,13,0.00
2013-1-2,82.0,69.5,57.0,68.0,63.5,56.0,99,83,56,30.06,29.96,6,1,8,0.00
2013-1-3,82.0,73.2,64.0,70.0,67.3,63.0,97,82,64,30.11,30.00,6,2,8,0.08
2013-1-4,82.0,71.8,64.0,72.0,68.0,63.0,99,88,71,30.21,30.08,6,2,9,0.15
2013-1-5,77.0,69.0,65.0,71.0,67.2,64.0,99,94,79,30.23,30.14,5,1,7,0.36
2013-1-6,83.0,72.4,62.0,73.0,68.8,62.0,99,89,72,30.17,30.03,6,2,10,0.01
2013-1-7,79.0,71.2,66.0,71.0,68.5,66.0,99,92,75,30.14,30.04,5,1,8,0.19
2013-1-8,83.0,76.0,70.0,75.0,71.7,69.0,97,87,74,30.19,30.05,6,4,14,1.26
2013-1-9,83.0,78.8,74.0,73.0,72.1,70.0,93,80,72,30.26,30.14,10,6,13,0.02
2013-1-10,82.0,76.7,74.0,71.0,67.7,64.0,85,74,57,30.27,30.17,9,5,14,0.01
2013-1-11,82.0,76.1,73.0,72.0,69.1,67.0,86,79,68,30.24,30.14,8,4,13,0.01
2013-1-12,83.0,76.3,71.0,70.0,67.4,65.0,84,74,63,30.16,30.07,7,4,12,0.01
2013-1-13,83.0,76.0,73.0,70.0,66.5,62.0,83,73,62,30.11,30.05,8,5,13,0.01
2013-1-14,82.0,75.5,70.0,68.0,65.6,62.0,83,72,59,30.15,30.09,6,3,10,0.00
2013-1-15,83.0,75.8,72.0,69.0,66.9,63.0,85,74,61,30.12,30.02,7,4,12,0.00
2013-1-16,83.0,74.0,62.0,71.0,67.1,60.0,97,80,62,30.08,29.99,6,2,10,0.00
2013-1-17,82.0,71.2,61.0,72.0,66.9,54.0,99,87,70,30.06,29.94,8,3,12,0.57
2013-1-18,74.0,64.6,53.0,62.0,54.4,47.0,80,70,60,30.20,30.06,8,4,13,0.01
2013-1-19,73.0,69.4,65.0,70.0,65.0,60.0,99,86,70,30.19,30.08,5,1,8,0.73
2013-1-20,80.0,70.9,62.0,71.0,66.7,62.0,99,87,70,30.12,29.99,7,2,10,0.24
2013-1-21,80.0,70.4,64.0,71.0,67.5,63.0,99,90,73,30.07,29.96,5,1,7,0.25
2013-1-22,77.0,68.3,62.0,64.0,59.5,53.0,98,75,57,30.22,29.99,9,4,14,0.01
2013-1-23,78.0,68.0,58.0,59.0,54.9,51.0,88,64,47,30.29,30.20,8,4,13,0.01
2013-1-24,77.0,64.3,56.0,56.0,52.7,44.0,92,69,42,30.28,30.20,7,2,10,0.00
2013-1-25,79.0,65.3,54.0,62.0,55.6,50.0,92,73,47,30.29,30.18,6,2,9,0.00
2013-1-26,80.0,67.6,57.0,61.0,57.3,52.0,95,72,46,30.26,30.16,6,2,9,0.00
2013-1-27,82.0,70.0,58.0,63.0,60.0,56.0,97,73,49,30.29,30.20,8,2,10,0.00
2013-1-28,83.0,75.3,71.0,68.0,65.3,61.0,83,71,58,30.32,30.23,8,5,12,0.00
2013-1-29,81.0,74.4,71.0,71.0,68.6,66.0,94,82,71,30.24,30.13,7,4,13,0.24
2013-1-30,80.0,74.6,71.0,70.0,66.7,63.0,91,77,66,30.14,29.96,9,4,14,0.01
2013-1-31,72.0,64.7,56.0,69.0,54.3,40.0,94,70,51,30.18,29.98,6,3,12,0.00
2013-2-1,76.0,62.1,51.0,57.0,48.8,39.0,80,63,50,30.27,30.16,8,4,15,0.00
2013-2-2,78.0,62.9,53.0,54.0,48.4,37.0,90,61,42,30.26,30.12,6,2,12,0.00
2013-2-3,78.0,61.3,49.0,53.0,47.8,40.0,99,66,29,30.17,30.07,7,2,13,0.00
2013-2-4,77.0,60.9,46.0,54.0,47.5,40.0,91,65,31,30.14,30.03,5,1,9,0.00
2013-2-5,80.0,66.3,50.0,64.0,57.4,49.0,99,76,49,30.09,30.00,7,2,9,0.00
2013-2-6,82.0,70.2,58.0,68.0,62.6,57.0,99,79,61,30.11,30.02,6,2,10,0.00
2013-2-7,83.0,74.9,70.0,69.0,65.5,62.0,81,73,61,30.08,29.94,7,4,9,0.00
2013-2-8,85.0,73.6,65.0,71.0,66.2,60.0,97,79,48,30.03,29.91,7,2,10,0.00
2013-2-9,83.0,71.4,63.0,68.0,64.2,60.0,99,80,53,30.18,30.01,8,3,13,0.00
2013-2-10,79.0,72.4,70.0,64.0,61.7,60.0,75,69,59,30.27,30.17,7,5,14,0.00
2013-2-11,80.0,74.0,69.0,66.0,64.0,61.0,79,71,61,30.22,30.11,9,4,12,0.00
2013-2-12,83.0,74.5,64.0,71.0,67.9,62.0,98,80,63,30.13,29.97,9,3,13,0.00
2013-2-13,83.0,75.4,67.0,74.0,70.7,67.0,99,86,72,30.02,29.88,9,3,13,0.00
2013-2-14,82.0,71.1,63.0,73.0,68.3,62.0,99,91,73,30.01,29.87,7,2,10,2.60
2013-2-15,74.0,66.7,63.0,68.0,65.5,63.0,99,96,81,30.02,29.93,5,2,10,1.69
2013-2-16,74.0,65.0,54.0,65.0,57.1,43.0,99,78,47,30.08,29.87,9,4,14,0.01
2013-2-17,62.0,51.6,43.0,43.0,29.1,16.0,71,45,21,30.31,30.08,9,5,15,0.00
2013-2-18,72.0,59.2,45.0,56.0,44.5,31.0,70,59,43,30.32,30.22,7,4,12,0.00
2013-2-19,80.0,72.2,61.0,67.0,60.7,52.0,84,68,57,30.22,30.09,8,4,13,0.00
2013-2-20,81.0,70.7,61.0,69.0,65.1,60.0,99,84,60,30.12,30.02,6,2,9,0.02
2013-2-21,84.0,74.2,64.0,70.0,67.2,62.0,97,80,60,30.10,29.99,7,2,9,0.00
2013-2-22,84.0,76.7,72.0,73.0,70.6,67.0,90,82,69,30.10,30.01,7,5,12,0.00
2013-2-23,84.0,76.5,71.0,74.0,71.0,68.0,97,84,70,30.06,29.92,8,5,13,0.98
2013-2-24,88.0,76.6,70.0,75.0,72.0,69.0,99,87,56,30.00,29.90,6,2,8,0.98
2013-2-25,84.0,75.5,66.0,75.0,71.3,65.0,99,87,72,29.91,29.81,7,3,10,0.01
2013-2-26,84.0,78.3,75.0,75.0,72.5,71.0,94,82,69,29.89,29.80,10,5,17,0.00
2013-2-27,80.0,70.7,62.0,74.0,65.6,61.0,99,85,55,29.96,29.86,5,2,8,0.79
2013-2-28,73.0,64.1,57.0,64.0,54.4,46.0,99,73,39,30.00,29.90,5,2,7,0.41
2013-3-1,69.0,62.2,58.0,56.0,50.7,46.0,81,67,47,29.98,29.90,4,2,7,0.00
2013-3-2,70.0,58.4,49.0,49.0,41.7,34.0,79,55,37,30.03,29.95,7,4,14,0.00
2013-3-3,65.0,54.3,47.0,43.0,40.8,38.0,84,62,40,30.14,29.96,7,3,13,0.00
2013-3-4,68.0,53.5,39.0,45.0,37.0,30.0,88,58,24,30.21,30.11,7,3,13,0.00
2013-3-5,76.0,62.1,44.0,58.0,52.1,42.0,95,72,50,30.18,30.09,6,2,10,0.00
2013-3-6,80.0,65.2,53.0,65.0,51.6,33.0,96,66,24,30.09,29.94,9,4,15,0.00
2013-3-7,72.0,54.7,46.0,56.0,42.1,35.0,80,63,46,30.16,30.07,6,3,10,0.00
2013-3-8,76.0,63.4,50.0,54.0,50.7,46.0,97,67,36,30.20,30.11,9,2,10,0.00
2013-3-9,78.0,64.9,51.0,58.0,53.1,47.0,95,68,45,30.19,30.10,7,3,12,0.00
2013-3-10,80.0,71.7,66.0,61.0,56.5,52.0,75,59,46,30.16,30.08,7,4,12,0.00
2013-3-11,81.0,72.5,68.0,64.0,60.7,58.0,76,67,50,30.12,29.96,7,5,12,0.00
2013-3-12,81.0,74.5,71.0,72.0,66.4,62.0,87,76,67,30.00,29.91,9,5,14,0.00
2013-3-13,78.0,66.5,56.0,67.0,56.3,44.0,96,72,37,30.12,29.97,9,3,13,0.00
2013-3-14,73.0,60.9,53.0,52.0,47.7,42.0,94,65,34,30.20,30.09,12,4,18,0.00
2013-3-15,75.0,62.5,50.0,56.0,50.6,44.0,84,67,47,30.25,30.15,7,3,12,0.00
2013-3-16,78.0,65.2,51.0,57.0,53.3,50.0,99,69,42,30.19,30.09,8,2,10,0.00
2013-3-17,79.0,68.7,56.0,62.0,58.4,53.0,93,71,54,30.15,30.03,9,2,12,0.00
2013-3-18,83.0,73.2,67.0,71.0,66.2,61.0,97,80,63,30.08,29.96,9,4,16,0.72
2013-3-19,81.0,72.5,67.0,71.0,68.4,66.0,97,88,65,30.01,29.83,6,2,12,0.69
2013-3-20,83.0,71.9,61.0,72.0,65.9,59.0,99,83,59,29.97,29.80,7,2,13,0.01
2013-3-21,75.0,62.3,53.0,68.0,56.2,48.0,94,82,41,29.95,29.82,7,3,9,0.00
2013-3-22,79.0,65.8,49.0,70.0,57.8,47.0,98,78,55,30.01,29.90,7,2,12,0.02
2013-3-23,86.0,77.4,70.0,76.0,72.7,69.0,97,86,70,29.98,29.80,10,3,13,0.04
2013-3-24,93.0,80.6,72.0,75.0,72.4,68.0,96,78,51,29.89,29.67,13,5,20,0.21
2013-3-25,83.0,74.3,64.0,73.0,60.1,35.0,97,66,30,29.98,29.74,7,3,12,0.21
2013-3-26,73.0,61.4,52.0,42.0,36.5,30.0,57,41,22,30.21,29.98,7,4,13,0.00
2013-3-27,71.0,57.0,44.0,48.0,40.5,30.0,80,55,37,30.25,30.16,8,3,15,0.00
2013-3-28,75.0,60.9,48.0,52.0,44.6,34.0,85,58,30,30.27,30.18,7,3,12,0.00
2013-3-29,79.0,64.7,50.0,54.0,49.3,43.0,81,60,38,30.29,30.21,7,2,12,0.00
2013-3-30,79.0,69.9,61.0,55.0,52.3,50.0,70,55,37,30.27,30.17,5,3,12,0.00
2013-3-31,82.0,73.6,65.0,67.0,61.1,-99.9,82,68,56,30.20,30.05,7,4,13,0.00
2013-4-1,90.0,76.8,69.0,72.0,67.5,61.0,91,75,40,30.06,29.94,9,3,17,0.09
2013-4-2,85.0,74.4,65.0,69.0,66.3,64.0,98,78,54,30.08,29.98,7,2,9,0.09
2013-4-3,86.0,77.6,72.0,72.0,69.4,67.0,86,76,61,30.06,30.00,8,4,12,0.00
2013-4-4,85.0,75.6,68.0,74.0,70.7,67.0,97,85,68,30.05,29.91,9,4,13,0.94
2013-4-5,73.0,68.9,65.0,72.0,66.8,64.0,97,93,85,29.98,29.82,9,3,12,0.77
2013-4-6,82.0,69.4,58.0,68.0,62.2,57.0,98,80,56,30.08,29.91,8,4,14,0.01
2013-4-7,82.0,74.9,70.0,66.0,63.3,61.0,77,68,55,30.14,30.02,6,4,13,0.01
2013-4-8,85.0,74.4,59.0,66.0,62.4,56.0,95,68,49,30.14,30.04,6,2,8,0.00
2013-4-9,85.0,76.8,73.0,70.0,67.6,65.0,84,74,58,30.16,30.05,7,4,13,0.00
2013-4-10,86.0,78.6,73.0,75.0,70.9,66.0,86,78,66,30.11,30.00,7,5,14,0.00
2013-4-11,86.0,78.8,75.0,75.0,72.7,71.0,89,82,69,30.02,29.90,9,6,13,0.00
2013-4-12,88.0,80.1,76.0,78.0,75.3,73.0,92,86,71,29.94,29.86,9,5,13,0.03
2013-4-13,87.0,77.1,70.0,76.0,73.1,69.0,96,88,66,29.96,29.87,7,2,10,0.97
2013-4-14,86.0,76.2,70.0,76.0,73.3,69.0,99,91,72,29.96,29.91,5,2,7,0.97
2013-4-15,89.0,77.9,70.0,79.0,73.4,68.0,98,87,61,30.06,29.93,7,2,16,1.40
2013-4-16,87.0,78.3,69.0,79.0,73.6,69.0,99,86,69,30.12,30.02,9,3,13,1.46
2013-4-17,87.0,79.2,73.0,72.0,69.5,67.0,87,73,56,30.11,30.03,7,4,12,0.01
2013-4-18,89.0,80.9,75.0,76.0,72.0,68.0,85,75,62,30.06,29.98,7,4,13,0.00
2013-4-19,88.0,82.0,77.0,76.0,73.6,71.0,90,77,62,30.05,29.96,10,5,14,0.01
2013-4-20,89.0,78.6,72.0,78.0,74.0,70.0,98,86,68,30.08,29.96,8,3,13,0.27
2013-4-21,87.0,78.2,71.0,76.0,72.4,69.0,98,83,64,30.10,29.98,8,3,13,0.01
2013-4-22,86.0,75.3,70.0,74.0,70.4,68.0,97,85,62,30.04,29.93,6,2,12,0.56
2013-4-23,86.0,76.2,67.0,70.0,66.6,62.0,98,74,54,30.09,29.95,10,5,14,0.07
2013-4-24,87.0,78.6,72.0,67.0,64.2,60.0,76,62,49,30.14,30.03,8,3,10,0.00
2013-4-25,86.0,77.7,71.0,65.0,62.8,61.0,75,61,48,30.20,30.08,7,3,9,0.00
2013-4-26,86.0,77.3,69.0,68.0,64.6,61.0,79,66,53,30.23,30.12,9,3,14,0.00
2013-4-27,87.0,78.5,72.0,67.0,64.6,61.0,75,63,48,30.21,30.09,7,4,10,0.00
2013-4-28,87.0,78.8,73.0,66.0,62.8,-99.9,74,61,45,30.12,30.00,7,5,13,0.00
2013-4-29,87.0,78.9,74.0,72.0,68.1,63.0,83,70,54,30.04,29.94,10,5,13,0.00
2013-4-30,89.0,77.3,71.0,74.0,70.6,68.0,98,81,59,30.00,29.92,7,2,15,0.73
2013-5-1,86.0,75.1,70.0,77.0,70.7,69.0,98,87,68,30.00,29.93,6,1,9,0.43
2013-5-2,80.0,72.6,68.0,74.0,70.7,67.0,99,94,81,29.94,29.80,10,3,16,2.70
2013-5-3,87.0,75.2,69.0,73.0,70.2,68.0,99,86,57,29.81,29.67,6,3,9,3.22
2013-5-4,92.0,77.0,67.0,72.0,68.6,66.0,99,78,50,29.79,29.68,6,2,10,0.12
2013-5-5,88.0,75.1,63.0,70.0,62.4,51.0,96,68,34,29.92,29.75,7,3,10,0.01
2013-5-6,78.0,61.4,55.0,63.0,55.4,51.0,97,82,61,30.01,29.91,3,1,6,0.00
2013-5-7,87.0,78.2,62.0,67.0,61.5,56.0,81,57,41,30.06,29.97,7,4,12,0.00
2013-5-8,88.0,74.7,61.0,66.0,62.1,58.0,96,68,40,30.14,30.03,7,2,9,0.00
2013-5-9,90.0,78.3,63.0,75.0,68.0,60.0,92,72,56,30.14,30.06,7,2,10,0.00
2013-5-10,90.0,80.7,74.0,76.0,70.8,-99.9,88,76,56,30.14,30.02,7,3,12,0.00
2013-5-11,90.0,80.1,72.0,77.0,74.2,71.0,99,83,65,30.07,29.98,8,3,13,0.01
2013-5-12,90.0,77.4,70.0,77.0,71.0,-99.9,99,84,60,30.06,29.93,7,2,13,1.24
2013-5-13,90.0,78.3,71.0,74.0,70.2,66.0,99,78,47,30.09,29.99,8,2,13,1.24
2013-5-14,86.0,78.2,73.0,67.0,60.9,56.0,78,57,42,30.18,30.06,9,5,13,0.00
2013-5-15,86.0,78.1,71.0,66.0,61.5,56.0,70,58,43,30.19,30.09,6,4,10,0.00
2013-5-16,87.0,72.1,70.0,66.0,41.1,-99.9,72,59,46,30.12,30.04,7,3,10,0.00
2013-5-17,89.0,78.9,72.0,75.0,62.9,-99.9,87,73,60,30.09,30.01,7,3,10,0.00
2013-5-18,89.0,80.0,72.0,75.0,72.7,70.0,98,80,62,30.11,30.03,9,3,13,0.05
2013-5-19,89.0,81.5,75.0,73.0,70.5,69.0,85,70,54,30.10,30.00,7,3,10,0.00
2013-5-20,82.0,76.1,69.0,76.0,72.7,68.0,98,90,78,30.08,29.98,7,2,10,2.97
2013-5-21,86.0,75.8,69.0,76.0,72.0,68.0,99,89,64,30.07,29.94,9,3,13,1.32
2013-5-22,87.0,78.1,73.0,76.0,73.2,71.0,96,85,65,29.98,29.89,6,2,12,0.48
2013-5-23,99.0,83.4,77.0,77.0,74.0,66.0,94,76,35,30.00,29.93,7,2,9,0.01
2013-5-24,93.0,83.9,75.0,78.0,74.8,71.0,99,76,49,30.05,29.94,9,2,12,0.00
2013-5-25,89.0,81.0,71.0,74.0,68.6,64.0,96,68,47,30.16,30.04,9,4,14,0.08
2013-5-26,89.0,80.6,74.0,69.0,65.4,57.0,77,61,49,30.18,30.10,7,4,13,0.00
2013-5-27,89.0,80.5,74.0,74.0,70.0,63.0,87,71,61,30.16,30.07,7,4,13,0.00
2013-5-28,85.0,79.2,75.0,75.0,73.3,71.0,94,83,69,30.12,30.04,9,6,14,0.30